Wind_Speed
5 4 5 4 3 2 3 3 4 5 5 5 4 4 4 4 4 4 3 3 2 2 1 1 1 1 1 0 0 1 2 1 1 1 2 2 2 2 2 2 2 3 3
6 5 5 5 5 5 5 5 5 6 5 5 5 5 4 4 3 3 3 3 2 2 2 2 2 1 1 1 1 1 1 1 1 1 2 2 2 2 2 2 2 3 3
7 6 6 6 7 8 8 7 6 6 6 5 5 5 5 4 3 3 3 3 2 2 2 3 2 2 1 1 1 1 0 1 1 1 1 1 2 2 2 2 2 2 3
7 7 7 7 8 8 8 7 6 6 5 4 4 4 4 4 3 2 2 2 2 3 3 3 2 2 1 2 1 1 0 1 2 1 1 1 1 1 2 2 3 3 3
8 8 8 8 7 7 7 6 6 5 5 5 4 4 4 3 3 3 2 3 3 4 3 3 2 2 2 2 1 1 0 1 2 1 1 2 1 2 1 2 2 3 4
8 8 8 8 8 7 7 6 6 6 6 6 6 5 5 3 3 3 3 3 3 3 3 3 2 2 2 2 1 0 0 1 1 1 2 2 1 2 2 2 3 3 4
7 7 8 8 8 7 7 6 6 6 6 6 6 6 5 4 3 3 4 4 4 4 3 3 3 3 3 2 2 1 1 1 1 1 2 2 2 2 3 3 3 4 4
6 7 7 8 8 7 7 7 7 7 6 6 5 5 5 5 5 4 4 3 3 3 3 3 3 3 2 2 2 2 0 0 1 2 2 2 3 3 4 4 4 4 5
7 7 8 8 8 8 8 8 8 7 6 6 5 6 6 6 5 5 4 4 3 3 3 3 3 3 3 2 2 1 1 2 2 3 3 3 3 4 5 5 5 5 5
7 8 8 8 8 8 8 8 8 7 7 6 5 5 5 5 5 5 4 4 4 3 2 3 3 3 3 3 3 2 2 3 4 4 4 4 4 4 5 6 6 6 6
8 8 9 9 8 8 8 7 7 6 6 6 6 5 4 4 4 4 3 3 3 3 3 3 3 3 4 4 4 4 4 4 5 5 5 5 5 5 5 6 7 7 7
7 8 8 8 8 8 8 7 6 6 6 5 5 4 4 3 3 3 3 3 3 3 3 3 3 4 4 5 5 5 6 6 5 6 6 6 6 6 6 6 6 7 7
6 6 7 7 7 8 7 7 6 5 5 5 4 3 3 2 2 2 2 2 2 3 3 4 3 4 5 6 6 6 7 6 6 6 7 7 7 7 7 8 8 8 8
5 5 5 5 5 6 5 5 5 5 4 4 3 3 3 2 2 2 2 2 3 3 3 4 5 5 6 7 7 7 7 8 8 7 7 7 7 8 8 9 9 10 10
5 5 5 5 4 4 4 4 4 4 3 3 2 3 2 2 2 2 2 3 3 3 4 4 5 6 6 7 7 7 7 8 9 8 8 7 8 8 9 9 10 11 12
5 5 5 4 3 3 3 3 3 3 3 2 1 1 1 2 2 3 3 3 3 4 5 5 6 6 6 7 7 8 9 9 9 9 9 9 9 9 9 10 11 11 11
6 5 5 4 3 2 2 3 3 3 2 2 2 2 2 3 3 3 3 4 5 5 6 6 7 8 8 8 8 9 10 10 10 11 11 10 10 10 10 11 11 12 13
5 5 4 4 3 2 2 2 1 2 2 2 3 3 3 4 4 5 5 6 6 7 7 8 8 8 9 9 9 10 10 10 11 12 11 11 12 12 12 12 13 13 14
5 5 4 4 2 1 1 2 1 1 3 3 3 4 4 4 6 6 6 7 8 8 9 10 10 11 11 11 11 12 12 12 12 12 12 13 13 14 13 14 14 15 15
6 5 4 4 3 2 1 1 1 3 4 5 5 5 5 6 6 7 8 9 9 10 11 11 11 12 12 13 13 13 13 14 14 14 14 14 14 15 15 15 16 16 16
6 5 4 3 3 3 2 2 2 3 5 5 6 6 6 7 8 9 10 10 11 12 13 13 13 13 14 14 15 15 15 15 16 16 15 16 16 16 17 17 17 18 18
6 5 4 4 5 5 4 3 4 4 5 6 6 7 8 8 9 11 12 12 13 13 14 14 14 15 15 16 16 16 17 17 17 17 17 17 18 18 19 18 19 19 19
8 7 5 5 5 6 5 4 4 5 6 7 7 9 9 9 10 11 12 13 13 14 15 15 16 16 16 17 17 17 17 16 17 18 19 19 19 19 20 20 20 21 21
8 7 6 6 6 6 6 6 6 6 7 8 8 9 10 10 11 12 13 13 15 15 16 17 17 17 17 18 18 18 18 18 18 18 18 19 20 20 21 21 21 21 22
9 8 8 8 8 8 8 8 7 8 8 9 10 10 10 11 12 13 14 15 16 16 17 17 17 18 18 19 19 19 19 19 19 19 19 20 21 21 21 21 21 21 22
9 9 9 8 9 9 9 9 9 9 10 11 11 11 11 12 13 14 15 15 16 17 17 18 18 19 19 19 19 20 20 20 20 21 21 21 21 21 21 21 22 23 23
Wind_Direction
47 53 64 74 71 89 136 146 135 137 128 122 125 125 128 125 112 107 91 83 55 25 35 36 22 42 93 131 222 214 216 214 188 193 211 205 196 202 222 226 216 217 214
43 51 63 76 75 92 123 130 122 123 121 120 123 125 124 124 114 118 99 91 71 47 44 38 51 37 107 96 93 131 175 214 201 191 187 183 199 210 214 223 216 207 205
47 59 71 82 85 94 108 116 110 110 113 121 126 127 125 121 113 107 101 95 74 48 32 36 37 43 65 54 42 26 227 213 198 188 197 199 202 206 212 218 218 212 209
53 67 79 85 89 96 104 107 107 107 110 113 122 124 123 122 111 110 111 99 70 45 34 30 31 15 15 22 16 355 340 197 173 171 154 168 198 199 225 223 220 228 232
62 69 77 84 87 93 94 95 100 104 101 99 107 116 120 112 93 89 94 81 61 54 49 51 38 19 14 10 9 349 318 162 175 182 198 205 212 216 215 224 228 225 224
64 69 76 82 84 88 91 86 88 93 89 89 100 105 103 90 80 81 73 73 65 58 57 63 50 43 43 30 32 2 240 169 192 205 216 223 233 228 220 231 245 248 236
67 71 77 81 87 87 85 84 85 83 86 91 94 93 88 79 75 77 72 67 55 55 54 55 52 47 42 28 12 352 272 215 230 233 232 238 242 244 242 242 246 250 244
65 72 79 81 83 83 84 86 88 90 93 91 88 92 89 80 77 76 73 66 55 45 48 55 36 27 23 8 5 15 5 290 264 251 253 249 242 250 250 250 256 254 248
64 72 80 81 81 80 80 84 86 85 93 92 86 85 87 81 78 73 70 57 51 44 40 33 14 9 358 354 3 1 312 283 283 266 256 261 256 258 261 259 261 262 253
67 73 79 80 80 81 85 89 80 81 90 93 92 89 84 75 74 72 68 56 45 39 21 16 15 3 350 344 336 320 293 280 287 278 263 264 267 269 266 258 258 260 257
70 78 79 74 73 77 81 85 85 87 91 91 95 94 89 83 78 69 54 41 34 29 13 2 356 347 343 339 325 309 290 284 286 279 271 269 269 273 275 264 260 260 261
71 76 77 75 75 81 84 85 86 91 93 90 90 92 91 86 77 66 52 32 21 8 354 341 338 332 336 336 326 307 296 288 285 281 276 274 272 270 274 270 265 265 266
68 74 76 75 76 80 82 83 82 88 88 85 88 90 87 81 74 59 48 30 3 342 337 333 324 315 317 320 317 311 303 294 289 283 283 286 278 268 270 269 268 269 267
67 68 74 75 77 79 82 82 77 83 82 78 80 80 76 71 58 41 30 16 356 336 320 322 319 313 310 312 312 308 306 304 299 293 288 288 281 271 271 268 269 269 267
68 71 73 67 73 77 79 79 77 78 77 64 66 61 51 29 11 2 360 353 341 329 317 309 310 310 310 309 305 303 305 305 298 292 290 290 287 279 275 274 273 270 267
57 69 71 73 74 77 75 72 78 80 72 52 39 31 359 333 332 333 331 323 318 317 313 309 307 305 305 307 307 302 302 305 303 299 293 287 287 288 283 280 279 277 270
44 52 52 53 57 74 84 76 74 70 52 28 359 320 310 308 310 305 305 314 310 307 307 308 304 303 301 302 304 304 303 301 300 299 293 292 287 286 284 282 281 279 276
40 38 39 42 57 79 73 70 71 52 26 3 336 307 300 303 302 299 299 307 310 307 304 307 308 306 301 297 300 301 301 299 295 297 290 292 292 290 287 286 281 280 277
33 31 28 35 49 72 59 45 21 8 349 340 326 314 302 299 300 298 299 302 303 301 299 301 303 302 299 298 299 300 299 299 295 295 292 290 291 290 287 286 282 282 279
19 22 23 13 11 17 11 3 346 337 331 323 316 310 297 294 297 297 299 298 297 295 294 297 298 298 297 296 295 297 295 294 293 291 289 287 289 288 288 286 286 284 282
358 358 4 5 355 351 338 312 303 319 324 315 313 311 297 293 294 296 296 297 297 293 290 291 294 295 295 295 294 295 296 295 294 293 290 288 285 285 285 285 286 285 284
338 333 327 325 323 326 325 307 305 308 315 318 318 314 310 300 298 298 296 296 295 294 292 290 291 292 294 294 294 294 293 294 293 293 288 286 284 285 284 284 285 282 283
325 319 317 307 306 311 314 305 302 308 311 312 311 309 308 304 300 298 296 298 296 295 294 293 292 293 294 294 294 295 294 291 292 290 288 285 284 286 285 282 280 279 280
315 313 306 305 305 300 298 297 299 303 303 301 299 302 300 300 301 299 297 298 298 295 293 293 294 294 293 293 294 294 294 290 291 289 288 285 284 285 285 283 281 279 279
315 312 309 305 302 294 289 287 293 296 301 299 297 295 294 300 304 303 300 297 296 296 294 293 292 293 293 293 294 293 293 291 289 288 286 286 286 287 286 284 283 280 281
317 313 311 304 302 295 295 293 288 294 299 300 297 294 295 300 303 304 303 301 297 295 294 294 293 292 292 293 293 294 293 293 292 288 286 286 286 286 286 285 284 283 283
Height
5874 5873 5873 5872 5870 5867 5867 5870 5873 5875 5876 5877 5878 5879 5880 5881 5881 5882 5882 5883 5883 5883 5883 5883 5883 5884 5884 5884 5884 5885 5885 5886 5886 5886 5887 5887 5888 5888 5888 5889 5890 5890 5891
5875 5874 5873 5871 5868 5864 5864 5869 5873 5876 5877 5878 5878 5879 5880 5881 5881 5882 5882 5883 5883 5883 5883 5884 5884 5884 5884 5884 5884 5885 5885 5885 5886 5886 5886 5887 5888 5888 5889 5889 5890 5890 5891
5875 5875 5874 5873 5871 5868 5868 5872 5875 5876 5877 5878 5879 5879 5880 5881 5882 5882 5883 5883 5883 5883 5884 5884 5884 5884 5884 5884 5885 5885 5885 5885 5886 5886 5886 5887 5887 5888 5889 5889 5889 5890 5891
5876 5876 5875 5874 5873 5873 5873 5875 5876 5877 5878 5879 5879 5880 5881 5881 5882 5882 5883 5883 5884 5884 5884 5884 5884 5884 5884 5885 5885 5885 5885 5885 5886 5886 5887 5887 5888 5888 5888 5889 5889 5890 5890
5877 5877 5876 5876 5875 5875 5876 5876 5877 5878 5879 5879 5880 5880 5881 5881 5882 5883 5883 5884 5884 5884 5884 5884 5885 5885 5885 5885 5885 5885 5885 5885 5886 5886 5887 5887 5888 5888 5888 5889 5889 5889 5890
5879 5878 5878 5877 5877 5877 5877 5877 5878 5879 5879 5880 5880 5881 5882 5882 5883 5883 5883 5884 5884 5885 5885 5884 5885 5885 5885 5885 5885 5885 5885 5885 5886 5886 5887 5887 5887 5888 5888 5888 5889 5889 5889
5880 5879 5879 5879 5878 5878 5878 5879 5879 5880 5880 5881 5881 5882 5882 5883 5883 5883 5884 5884 5885 5885 5885 5885 5885 5885 5884 5885 5885 5885 5885 5885 5886 5886 5887 5887 5887 5887 5888 5888 5888 5888 5889
5881 5880 5880 5880 5879 5879 5879 5880 5880 5881 5881 5881 5882 5882 5883 5883 5883 5884 5884 5885 5885 5885 5885 5885 5885 5885 5885 5884 5884 5884 5885 5885 5885 5886 5886 5886 5886 5887 5887 5887 5887 5888 5888
5882 5881 5881 5880 5880 5880 5881 5881 5881 5881 5882 5882 5883 5883 5884 5884 5884 5884 5885 5885 5885 5885 5885 5885 5885 5885 5884 5884 5884 5884 5884 5884 5885 5885 5885 5885 5886 5886 5886 5886 5886 5886 5887
5883 5882 5882 5882 5882 5882 5882 5882 5882 5882 5883 5883 5883 5884 5884 5885 5885 5885 5885 5885 5885 5885 5885 5885 5885 5884 5884 5884 5884 5883 5883 5884 5884 5884 5884 5885 5885 5885 5885 5885 5885 5885 5885
5884 5883 5883 5883 5883 5883 5882 5883 5883 5883 5884 5884 5884 5884 5885 5885 5885 5885 5885 5885 5885 5884 5884 5884 5884 5884 5884 5883 5883 5883 5883 5883 5883 5883 5883 5884 5884 5884 5884 5884 5884 5884 5884
5885 5884 5884 5884 5884 5883 5883 5884 5884 5884 5884 5885 5885 5885 5885 5885 5885 5885 5885 5885 5884 5884 5884 5884 5883 5883 5883 5883 5882 5882 5882 5882 5882 5882 5882 5882 5882 5882 5882 5882 5882 5882 5883
5886 5885 5885 5885 5884 5884 5884 5884 5884 5885 5885 5885 5885 5885 5885 5885 5885 5885 5885 5884 5884 5884 5883 5883 5883 5883 5882 5882 5882 5881 5880 5880 5880 5880 5880 5880 5880 5881 5880 5880 5880 5880 5880
5887 5886 5885 5885 5885 5885 5885 5885 5885 5884 5884 5885 5885 5885 5885 5885 5885 5884 5884 5884 5883 5883 5883 5882 5882 5882 5882 5881 5881 5880 5879 5879 5879 5878 5878 5878 5878 5878 5878 5878 5878 5878 5878
5887 5886 5886 5885 5885 5885 5885 5885 5885 5884 5884 5884 5884 5884 5885 5885 5884 5884 5884 5883 5883 5882 5882 5882 5881 5881 5880 5880 5879 5879 5878 5878 5877 5876 5876 5876 5876 5876 5876 5876 5876 5876 5875
5887 5887 5886 5886 5885 5885 5885 5885 5885 5885 5884 5884 5884 5884 5884 5884 5884 5884 5883 5883 5882 5881 5881 5880 5880 5879 5879 5878 5878 5877 5877 5876 5875 5874 5874 5874 5874 5874 5873 5873 5873 5873 5872
5887 5886 5886 5885 5885 5885 5885 5885 5885 5884 5884 5884 5884 5884 5884 5884 5883 5883 5882 5882 5881 5880 5880 5879 5878 5878 5878 5877 5876 5876 5875 5874 5873 5872 5872 5871 5871 5871 5870 5870 5870 5869 5869
5888 5887 5886 5885 5885 5884 5884 5884 5884 5884 5884 5883 5883 5883 5883 5882 5882 5882 5881 5881 5880 5879 5879 5878 5877 5876 5876 5875 5875 5874 5873 5872 5871 5870 5869 5868 5868 5868 5867 5867 5866 5865 5865
5888 5886 5886 5885 5885 5884 5884 5883 5883 5883 5883 5882 5882 5881 5881 5881 5881 5880 5880 5879 5878 5878 5877 5876 5875 5874 5874 5873 5872 5871 5870 5869 5868 5867 5866 5866 5865 5864 5864 5863 5862 5862 5861
5888 5886 5885 5885 5884 5883 5883 5882 5882 5882 5882 5881 5880 5880 5880 5879 5879 5878 5878 5877 5876 5875 5874 5873 5873 5872 5871 5870 5869 5868 5867 5866 5865 5864 5863 5862 5861 5861 5860 5860 5859 5858 5857
5888 5887 5885 5884 5884 5883 5882 5882 5881 5881 5881 5880 5879 5879 5878 5878 5877 5876 5876 5875 5874 5873 5872 5871 5870 5869 5868 5867 5866 5865 5864 5862 5861 5860 5859 5859 5858 5857 5856 5855 5855 5854 5853
5887 5886 5884 5883 5883 5882 5881 5881 5880 5880 5879 5878 5878 5877 5876 5875 5875 5874 5873 5872 5871 5870 5869 5868 5867 5866 5865 5863 5862 5861 5860 5859 5857 5856 5855 5854 5853 5853 5852 5851 5850 5849 5848
5886 5884 5883 5882 5881 5880 5880 5879 5878 5878 5877 5876 5876 5875 5874 5873 5872 5871 5870 5869 5868 5867 5865 5864 5863 5862 5861 5860 5858 5857 5856 5855 5853 5852 5851 5850 5849 5848 5847 5845 5845 5844 5843
5884 5882 5881 5880 5879 5878 5878 5877 5877 5876 5875 5874 5873 5872 5871 5870 5869 5868 5867 5866 5865 5863 5862 5860 5859 5858 5856 5855 5854 5852 5851 5849 5849 5848 5847 5845 5843 5842 5841 5840 5839 5838 5837
5882 5881 5880 5878 5877 5876 5875 5875 5874 5874 5873 5872 5871 5870 5868 5867 5866 5865 5864 5862 5861 5859 5858 5856 5854 5853 5851 5850 5849 5847 5846 5844 5843 5842 5841 5840 5839 5837 5836 5834 5833 5832 5831
5881 5879 5878 5877 5875 5874 5873 5872 5871 5871 5871 5869 5868 5867 5866 5864 5863 5862 5860 5858 5857 5855 5853 5851 5850 5848 5846 5845 5843 5842 5841 5839 5837 5836 5836 5835 5833 5832 5830 5829 5827 5826 5825